Vertical_Velocity
-5 -3 -2 -3 -0 2 0 -0 -2 -1 -3 -1 7 -3 -2 -1 0 2 -4 1 3 8 3 13 12 9 20
2 -4 -5 -1 -3 -5 -2 3 -2 -0 -3 -2 2 6 -3 2 -3 -0 0 -3 -2 -5 6 6 10 15 -0
-8 -2 -3 2 -4 -1 -4 -2 -1 -1 -2 -4 -1 -2 10 4 6 -1 -4 -4 -1 -3 -10 -7 -2 -1 -5
-5 -5 -3 7 -4 -13 -6 5 -9 5 -0 -7 -3 5 2 -3 -5 1 -4 -2 2 6 0 -4 -3 -0 -9
0 -3 5 -2 -3 3 -10 -9 13 1 -5 -3 -1 -1 1 5 1 -2 -4 -4 -1 1 3 -0 -5 -0 -2
-2 -2 3 -3 -2 -1 -1 -2 -7 28 -19 12 -10 1 1 -4 0 -3 -4 -6 1 3 5 7 4 -0 4
-9 2 -3 -1 -7 1 4 -3 -0 3 -1 6 -4 6 -2 -2 -4 -3 -2 -3 0 1 0 -3 4 4 1
-3 -1 -2 -0 -2 -5 1 3 3 0 1 2 4 3 0 3 -2 -4 -2 1 -2 -7 -5 -3 -1 7 3
-2 -2 -2 -0 -3 -0 2 0 0 -1 1 2 0 4 3 1 1 0 -1 -5 -1 -2 -5 -5 -2 1 1
1 -0 -3 0 -1 -4 -0 1 -3 -3 -1 0 4 7 5 -1 -0 1 -0 0 -1 -0 -0 -0 0 1 6
-0 -1 -0 -1 -1 0 -0 -1 -4 -5 -5 -5 -5 -2 -2 1 9 -3 -1 -1 0 1 -1 -0 1 4 4
-1 -1 1 0 1 1 1 1 -1 -0 -0 1 1 -1 -1 -3 1 3 -3 -2 4 4 2 1 3 1 -1
0 1 -2 -0 1 0 -1 2 1 1 1 -1 -2 -0 -1 -3 -5 9 -2 -0 4 -0 3 3 4 3 -1
3 0 -2 2 -1 0 1 1 0 -0 0 1 1 3 2 -1 -3 -2 4 2 4 5 2 1 4 4 3
-2 -0 -0 0 0 -0 -0 2 1 -0 1 2 -0 -2 -3 -1 -1 -1 2 2 2 2 2 2 3 5 6
0 1 1 0 -0 -0 -2 -1 0 2 1 1 0 -2 3 2 0 0 1 0 -1 1 -0 -2 -2 0 5
2 1 2 2 2 0 1 -0 -0 -0 4 4 1 1 1 1 -1 1 7 1 -0 0 1 2 1 7 4
Height
5372 5373 5362 5347 5342 5331 5325 5319 5315 5313 5310 5308 5308 5314 5324 5331 5338 5344 5352 5360 5369 5377 5386 5399 5409 5421 5435
5352 5342 5334 5327 5319 5311 5304 5296 5289 5289 5284 5279 5278 5282 5292 5305 5314 5321 5328 5335 5343 5351 5362 5376 5387 5399 5409
5325 5319 5311 5304 5296 5289 5283 5277 5270 5263 5256 5248 5247 5251 5265 5278 5287 5297 5305 5313 5324 5332 5340 5352 5364 5373 5386
5304 5299 5290 5285 5273 5264 5263 5254 5249 5239 5229 5223 5221 5224 5232 5247 5264 5276 5286 5295 5304 5315 5323 5333 5343 5353 5364
5287 5279 5274 5265 5255 5247 5235 5233 5231 5216 5208 5208 5202 5201 5212 5229 5242 5254 5265 5277 5287 5295 5306 5317 5325 5335 5347
5272 5262 5257 5248 5238 5229 5221 5213 5211 5203 5192 5194 5185 5189 5197 5209 5223 5236 5248 5260 5272 5281 5289 5300 5312 5321 5330
5257 5249 5240 5233 5223 5217 5210 5200 5194 5190 5182 5183 5180 5182 5186 5196 5208 5220 5233 5244 5255 5266 5275 5283 5293 5307 5317
5244 5236 5226 5219 5211 5204 5198 5193 5188 5183 5180 5180 5179 5180 5182 5188 5198 5209 5218 5229 5239 5248 5259 5268 5279 5290 5302
5234 5224 5215 5208 5200 5195 5191 5186 5183 5182 5181 5179 5180 5180 5181 5184 5190 5198 5205 5211 5218 5226 5234 5243 5255 5269 5283
5226 5216 5208 5202 5195 5188 5183 5181 5180 5181 5180 5179 5179 5180 5182 5183 5186 5190 5195 5200 5205 5211 5218 5227 5238 5253 5270
5217 5210 5204 5198 5192 5186 5180 5177 5176 5177 5176 5177 5177 5178 5179 5182 5185 5186 5188 5192 5198 5204 5211 5220 5232 5248 5262
5212 5207 5201 5196 5191 5186 5182 5178 5176 5177 5177 5176 5175 5174 5176 5179 5182 5186 5187 5189 5198 5204 5211 5221 5233 5245 5257
5210 5205 5198 5194 5190 5186 5182 5179 5177 5176 5175 5173 5172 5172 5173 5175 5179 5185 5188 5192 5198 5204 5214 5224 5234 5244 5256
5207 5201 5195 5191 5188 5184 5182 5179 5177 5174 5173 5171 5170 5171 5172 5174 5177 5183 5190 5195 5200 5208 5215 5224 5233 5243 5254
5202 5198 5194 5191 5188 5185 5182 5179 5176 5173 5170 5169 5170 5171 5172 5175 5179 5184 5191 5197 5202 5209 5217 5225 5233 5243 5253
5202 5198 5195 5192 5189 5186 5183 5181 5178 5175 5171 5169 5170 5173 5176 5180 5183 5187 5193 5199 5205 5212 5219 5227 5235 5243 5252
5203 5199 5197 5194 5191 5188 5186 5184 5181 5178 5176 5175 5175 5176 5180 5183 5187 5191 5197 5202 5208 5214 5222 5229 5237 5245 5254